Regional Weather Roundup
Issued by NWS State College, PA

Home | Current Version | Previous Version | Text Only | Print | Product List | Glossary On
Versions: 1 2 3 4 5 6 7 8 9 10 11 12 13 14 15 16 17 18 19 20 21 22 23 24 25 26 27 28 29 30 31 32 33 34 35 36 37 38 39 40 41 42 43 44 45 46 47 48 49 50
000
ASUS41 KCTP 220310
RWRCTP
REGIONAL WEATHER ROUNDUP
NATIONAL WEATHER SERVICE STATE COLLEGE PA
1000 PM EST SUN JAN 21 2018

Note: "fair" indicates few or no clouds below 12,000 feet with no
significant weather and/or obstructions to visibility.

* = STATION THAT DOES NOT REPORT PRECIPITATION /E.G. RAIN...SNOW...ETC/
    THUNDER OR FOG.

PAZ002>004-007>009-013>016-020>023-029>032-220400-
WESTERN PENNSYLVANIA

CITY           SKY/WX    TMP DP  RH WIND       PRES   REMARKS
ERIE           CLOUDY    43  41  93 SW7       30.06S FOG
MEADVILLE      FOG       41  41 100 S6        30.06R VSB 1/4
FRANKLIN*      NOT AVBL
NEW CASTLE     CLOUDY    44  44 100 CALM      30.08S
BEAVER COUNTY  NOT AVBL
BUTLER*        CLOUDY    45  44  97 S6        30.09R
PITTSBURGH INT CLOUDY    44  44 100 S3        30.08S
PITTSBURGH     CLOUDY    46  43  89 S7        30.09R
INDIANA*       FOG       45  45 100 CALM      30.13R VSB 3/4
LATROBE        CLOUDY    48  46  93 CALM      30.10S
WASHINGTON CO* LGT RAIN  44  42  93 CALM      30.12S
$$

PAZ004>006-010>012-017>019-024>028-033>037-041-042-045-046-049>053-220400-
CENTRAL PENNSYLVANIA

CITY           SKY/WX    TMP DP  RH WIND       PRES   REMARKS
BRADFORD       LGT RAIN  42  42 100 S5        30.05S VSB 1/2
DUBOIS           N/A    N/A N/A N/A MISG      30.07R
CLEARFIELD     LGT RAIN  39  39 100 CALM      30.09S VSB 1/2
JOHNSTOWN      CLOUDY    46  44  93 SW6       30.08S
ALTOONA        CLOUDY    47  44  90 E5        30.10R
STATE COLLEGE  DRZL/FOG  37  37 100 CALM      30.11R VSB 1/2
WILLIAMSPORT   LGT RAIN  35  35 100 CALM      30.13S FOG
SELINSGROVE    CLOUDY    36  33  89 N5        30.14R FOG
FT INDIANTOWN  CLOUDY    40  40 100 NE3       30.13F
CAPITAL CITY   CLOUDY    43  37  79 CALM      30.13S
HARRISBURG     CLOUDY    42  37  82 CALM      30.12S
YORK           CLOUDY    44  37  76 CALM      30.11F
$$

PAZ038>040-043-044-047-048-054-055-060>062-067>071-220400-
EASTERN PENNSYLVANIA

CITY           SKY/WX    TMP DP  RH WIND       PRES   REMARKS
SCRANTON       LGT RAIN  36  36 100 CALM      30.12S FOG
MOUNT POCONO   CLOUDY    39  37  92 S5        30.10F
ALLENTOWN      CLOUDY    43  36  76 CALM      30.15S
QUAKERTOWN*    NOT AVBL
READING        CLOUDY    42  39  89 CALM      30.14R
LANCASTER      CLOUDY    42  38  85 E3        30.13F
COATESVILLE    CLOUDY    45  37  76 CALM      30.15F
POTTSTOWN      CLOUDY    43  35  73 CALM      30.16F
BLUE BELL      CLOUDY    43  36  75 CALM      30.18S
DOYLESTOWN     CLOUDY    45  36  70 CALM      30.15S
WILLOW GROVE   NOT AVBL
NORTH PHILA    CLOUDY    47  38  71 CALM      30.18F
PHILADELPHIA   MOCLDY    44  36  73 E3        30.17F
$$




USA.gov is the U.S. government's official web portal to all federal, state and local government web resources and services.